• In Russia
  • List of Countries
  • For 7 days
  • Water Temperature
  • Satellite Maps
  • Weather Map
  • Weather Widgets
  • user-avatar
    Login

    Hourly Weather Plodovyy

    Today, 20 July, Friday

    Time Temperature Precipitation Wind Pressure Humidity
    00:00 +20°C° 0 mm 2 mps 735 mmHg 87%
    01:00 +19°C° 0 mm 2 mps 735 mmHg 87%
    02:00 +19°C° 0 mm 2 mps 735 mmHg 88%
    03:00 +19°C° 0 mm 2 mps 735 mmHg 89%
    04:00 +19°C° 0 mm 2 mps 735 mmHg 87%
    05:00 +20°C° 0 mm 2 mps 735 mmHg 86%
    06:00 +21°C° 0 mm 2 mps 735 mmHg 85%
    07:00 +23°C° 0 mm 2 mps 735 mmHg 79%
    08:00 +25°C° 0 mm 2 mps 736 mmHg 73%
    09:00 +27°C° 0 mm 3 mps 736 mmHg 67%
    10:00 +27°C° 1 mm 4 mps 736 mmHg 67%
    11:00 +28°C° 1 mm 4 mps 735 mmHg 67%
    12:00 +28°C° 1 mm 5 mps 735 mmHg 66%
    13:00 +28°C° 1.1 mm 5 mps 735 mmHg 68%
    14:00 +27°C° 1.1 mm 4 mps 735 mmHg 70%
    15:00 +27°C° 1.1 mm 4 mps 735 mmHg 72%
    16:00 +26°C° 0.1 mm 3 mps 735 mmHg 73%
    17:00 +26°C° 0.1 mm 3 mps 735 mmHg 74%
    18:00 +26°C° 0.1 mm 2 mps 734 mmHg 75%
    19:00 +25°C° 0.7 mm 2 mps 734 mmHg 79%
    20:00 +24°C° 0.7 mm 3 mps 734 mmHg 83%
    21:00 +22°C° 0.7 mm 3 mps 734 mmHg 86%
    22:00 +21°C° 0.2 mm 4 mps 734 mmHg 87%
    23:00 +21°C° 0.2 mm 4 mps 734 mmHg 88%

    Tomorrow, 21 July, Saturday

    Time Temperature Precipitation Wind Pressure Humidity
    00:00 +21°C° 0.2 mm 4 mps 734 mmHg 89%
    01:00 +21°C° 0 mm 4 mps 734 mmHg 89%
    02:00 +20°C° 0 mm 3 mps 734 mmHg 90%
    03:00 +20°C° 0 mm 3 mps 734 mmHg 90%
    04:00 +20°C° 0.5 mm 3 mps 734 mmHg 90%
    05:00 +21°C° 0.5 mm 4 mps 734 mmHg 90%
    06:00 +21°C° 0.5 mm 4 mps 733 mmHg 90%
    07:00 +22°C° 0.3 mm 4 mps 734 mmHg 86%
    08:00 +25°C° 0.3 mm 4 mps 734 mmHg 82%
    09:00 +26°C° 0.3 mm 5 mps 734 mmHg 78%
    10:00 +27°C° 1.2 mm 5 mps 734 mmHg 76%
    11:00 +27°C° 1.2 mm 5 mps 734 mmHg 74%
    12:00 +28°C° 1.2 mm 5 mps 733 mmHg 71%
    13:00 +28°C° 0.6 mm 4 mps 733 mmHg 70%
    14:00 +29°C° 0.6 mm 4 mps 733 mmHg 68%
    15:00 +29°C° 0.6 mm 3 mps 734 mmHg 67%
    16:00 +28°C° 0.8 mm 3 mps 734 mmHg 71%
    17:00 +27°C° 0.8 mm 3 mps 734 mmHg 75%
    18:00 +27°C° 0.8 mm 3 mps 734 mmHg 79%
    19:00 +25°C° 0 mm 3 mps 734 mmHg 82%
    20:00 +24°C° 0 mm 3 mps 734 mmHg 85%
    21:00 +22°C° 0 mm 3 mps 734 mmHg 88%
    22:00 +21°C° 0 mm 3 mps 734 mmHg 89%
    23:00 +21°C° 0 mm 3 mps 734 mmHg 91%

    Day after tomorrow, 22 July, Sunday

    Time Temperature Precipitation Wind Pressure Humidity
    00:00 +20°C° 0 mm 3 mps 734 mmHg 92%
    01:00 +20°C° 0 mm 3 mps 734 mmHg 93%
    02:00 +20°C° 0 mm 2 mps 734 mmHg 95%
    03:00 +19°C° 0 mm 2 mps 734 mmHg 96%
    04:00 +20°C° 0 mm 2 mps 734 mmHg 95%
    05:00 +20°C° 0 mm 3 mps 734 mmHg 94%
    06:00 +21°C° 0 mm 3 mps 735 mmHg 93%
    07:00 +22°C° 0 mm 3 mps 735 mmHg 90%
    08:00 +22°C° 0 mm 4 mps 735 mmHg 87%
    09:00 +23°C° 0 mm 4 mps 735 mmHg 84%
    10:00 +25°C° 0.2 mm 4 mps 735 mmHg 82%
    11:00 +26°C° 0.2 mm 4 mps 735 mmHg 80%
    12:00 +26°C° 0.2 mm 5 mps 735 mmHg 77%
    13:00 +26°C° 0.7 mm 5 mps 735 mmHg 77%
    14:00 +27°C° 0.7 mm 5 mps 735 mmHg 76%
    15:00 +27°C° 0.7 mm 5 mps 735 mmHg 75%
    16:00 +26°C° 0.6 mm 5 mps 735 mmHg 78%
    17:00 +26°C° 0.6 mm 4 mps 735 mmHg 80%
    18:00 +26°C° 0.6 mm 4 mps 735 mmHg 83%
    19:00 +25°C° 0.2 mm 4 mps 735 mmHg 85%
    20:00 +23°C° 0.2 mm 4 mps 736 mmHg 88%
    21:00 +22°C° 0.2 mm 3 mps 736 mmHg 91%
    22:00 +21°C° 0.1 mm 4 mps 736 mmHg 91%
    23:00 +21°C° 0.1 mm 4 mps 736 mmHg 92%

    23 July, Monday

    Time Temperature Precipitation Wind Pressure Humidity
    00:00 +21°C° 0.1 mm 4 mps 736 mmHg 93%
    01:00 +20°C° 0.5 mm 4 mps 736 mmHg 93%
    02:00 +20°C° 0.5 mm 3 mps 736 mmHg 94%
    03:00 +20°C° 0.5 mm 3 mps 736 mmHg 95%
    04:00 +20°C° 0.2 mm 4 mps 736 mmHg 94%
    05:00 +20°C° 0.2 mm 4 mps 736 mmHg 93%
    06:00 +21°C° 0.2 mm 4 mps 736 mmHg 92%
    07:00 +22°C° 0.8 mm 4 mps 737 mmHg 89%
    08:00 +23°C° 0.8 mm 5 mps 737 mmHg 86%
    09:00 +25°C° 0.8 mm 5 mps 737 mmHg 83%
    10:00 +25°C° 1.5 mm 5 mps 737 mmHg 80%
    11:00 +26°C° 1.5 mm 6 mps 737 mmHg 77%
    12:00 +27°C° 1.5 mm 6 mps 737 mmHg 73%
    13:00 +27°C° 1.8 mm 5 mps 737 mmHg 76%
    14:00 +26°C° 1.8 mm 5 mps 737 mmHg 79%
    15:00 +25°C° 1.8 mm 4 mps 737 mmHg 81%
    16:00 +25°C° 0.3 mm 4 mps 737 mmHg 82%
    17:00 +25°C° 0.3 mm 5 mps 738 mmHg 83%
    18:00 +23°C° 0.3 mm 5 mps 738 mmHg 85%
    19:00 +22°C° 0 mm 4 mps 738 mmHg 86%
    20:00 +22°C° 0 mm 4 mps 738 mmHg 88%
    21:00 +21°C° 0 mm 3 mps 738 mmHg 90%
    22:00 +21°C° 0.2 mm 4 mps 738 mmHg 90%
    23:00 +20°C° 0.2 mm 4 mps 738 mmHg 91%

    24 July, Tuesday

    Time Temperature Precipitation Wind Pressure Humidity
    00:00 +20°C° 0.2 mm 4 mps 738 mmHg 91%
    01:00 +19°C° 0.9 mm 4 mps 738 mmHg 92%
    02:00 +19°C° 0.9 mm 3 mps 738 mmHg 93%
    03:00 +19°C° 0.9 mm 3 mps 738 mmHg 93%
    04:00 +19°C° 0.7 mm 3 mps 739 mmHg 91%
    05:00 +19°C° 0.7 mm 4 mps 739 mmHg 90%
    06:00 +19°C° 0.7 mm 4 mps 739 mmHg 88%
    07:00 +20°C° 0 mm 4 mps 739 mmHg 83%
    08:00 +21°C° 0 mm 4 mps 740 mmHg 79%
    09:00 +23°C° 0 mm 4 mps 740 mmHg 75%
    10:00 +25°C° 0.1 mm 5 mps 740 mmHg 71%
    11:00 +26°C° 0.1 mm 5 mps 740 mmHg 67%
    12:00 +27°C° 0.1 mm 5 mps 740 mmHg 63%
    13:00 +27°C° 0.1 mm 5 mps 740 mmHg 62%
    14:00 +27°C° 0.1 mm 6 mps 740 mmHg 61%
    15:00 +27°C° 0.1 mm 6 mps 741 mmHg 60%
    16:00 +27°C° 0 mm 5 mps 741 mmHg 64%
    17:00 +26°C° 0 mm 4 mps 741 mmHg 67%
    18:00 +25°C° 0 mm 3 mps 741 mmHg 71%
    19:00 +23°C° 0 mm 4 mps 741 mmHg 68%
    20:00 +23°C° 0 mm 4 mps 741 mmHg 66%
    21:00 +22°C° 0 mm 4 mps 741 mmHg 64%
    22:00 +22°C° 0 mm 5 mps 741 mmHg 60%
    23:00 +22°C° 0 mm 5 mps 741 mmHg 56%

    25 July, Wednesday

    Time Temperature Precipitation Wind Pressure Humidity
    00:00 +22°C° 0 mm 5 mps 741 mmHg 52%
    01:00 +21°C° 0 mm 5 mps 741 mmHg 52%
    02:00 +20°C° 0 mm 5 mps 741 mmHg 52%
    03:00 +20°C° 0 mm 5 mps 741 mmHg 52%
    04:00 +19°C° 0.1 mm 5 mps 741 mmHg 59%
    05:00 +18°C° 0.1 mm 4 mps 741 mmHg 65%
    06:00 +17°C° 0.1 mm 4 mps 741 mmHg 71%
    07:00 +18°C° 0.1 mm 4 mps 741 mmHg 72%
    08:00 +17°C° 0.1 mm 5 mps 742 mmHg 73%
    09:00 +17°C° 0.1 mm 5 mps 742 mmHg 74%
    10:00 +20°C° 0 mm 5 mps 742 mmHg 72%
    11:00 +21°C° 0 mm 6 mps 742 mmHg 70%
    12:00 +22°C° 0 mm 6 mps 742 mmHg 68%
    13:00 +22°C° 0 mm 6 mps 742 mmHg 68%
    14:00 +22°C° 0 mm 6 mps 743 mmHg 68%
    15:00 +22°C° 0 mm 6 mps 743 mmHg 68%
    16:00 +22°C° 0.1 mm 5 mps 743 mmHg 68%
    17:00 +22°C° 0.1 mm 5 mps 743 mmHg 69%
    18:00 +21°C° 0.1 mm 5 mps 743 mmHg 70%
    19:00 +21°C° 0.1 mm 5 mps 743 mmHg 68%
    20:00 +20°C° 0.1 mm 5 mps 743 mmHg 66%
    21:00 +20°C° 0.1 mm 5 mps 743 mmHg 63%
    22:00 +20°C° 0.1 mm 5 mps 743 mmHg 62%
    23:00 +19°C° 0.1 mm 5 mps 743 mmHg 60%
    Show more